Showing default

EDISON-1, 62610

Orbit data source: Space-Track

EDISON-1, 62610 is a Danish payload satellite in SSO that was launched on Tue, 14 Jan 2025 UTC via an FALCON 9 launch vehicle from the Air Force Western Test Range (AFWTR). Payload-class satellites include a variety of spacecraft equipped with specific instruments for various scientific and technological missions. These include communications satellites like Starlink; space stations such as the ISS; scientific satellites like the Hubble; Earth observation satellites from companies like Planet Labs, Umbra, and HawkEye 360; GPS; miniature CubeSats for education and research; and military/defense satellites.

Loading next visibility...
Identifier
62610, 2025-009B
Orbit
SSO
Country
Flag of DKDK / DEN
Related business
Manufacturer
Space Inventor
Mission
Operational Commercial Technology
Bus & Motor
CUBESAT 8U, Unknown motor
Mass
~15 kg wet, ~15 kg dry
Launch date (UTC)
2025-01-14 (1 year ago)
Launch vehicle
FALCON 9
Launch site
Air Force Western Test Range (AFWTR)
Object type
Payload
Rocket body
Debris
Shape & HBR
Box + 1 Pan, 0.3 m
Radar Cross Section
0.180 m², Medium (>0.1 m² and < 1m²)

Expand to show TLE details & history
Last TLE update: 22 hours ago

TLE from 22 hours ago
0 EDISON-1
1 62610U 25009B   26034.17133273  .00015498  00000-0  56989-3 0  9990
2 62610  97.4109 117.1773 0006754  69.8557 290.3409 15.27956867 58462
Epoch: 2026-02-03T04:06Z
TLE epoch observation values (Epoch: 2026-02-03T04:06:43.147Z)
Latitude
Longitude
-77.85857°
Altitude
483.414 km
Speed
7.625 km/s
True Right ascension
07h 48m 42s
True Declination
0° 00' 00"
Sunlit
Object was in full shadow at epoch
Visualization orbit readout
Latitude
Unknown
Longitude
Unknown
Altitude
Unknown
Speed
Unknown
Apparent Right ascension
Unknown
Apparent Declination
Unknown
Sunlit
N/A
Visualization observer readout
Local Sidereal Time
04:13:56
Azimuth
Unknown
Elevation
Unknown
Doppler factor
Unknown
Orbital elements
Apogee altitude
483.508 km
Perigee altitude
474.245 km
Semi-major axis
6,857.013 km
Eccentricity
0.00068
Inclination
97.4109°
RAAN
117.1773°
Arg. of periapsis
69.8557°
True anomaly
290.26831°
Mean anomaly
290.3409°
Eccentric anomaly
290.30461°
Mean motion
3.82244 °/min
Orbital period
94.18 mins
BSTAR
0.00056989
Loading maneuver chart data...
Computing Atmospheric mass density...
Loading historical data...
Loading historical data...
Loading historical data...
Loading historical data...
Loading historical data...
Loading historical data...
Loading historical data...

Documentation

Showing up to 5 results
|